[[{"header":{"parameterUnit":"m.s-1","parameterCategory":1,"la1":30.2991,"la2":30.254,"lo1":-89.0895,"lo2":-89.0444,"dy":0.0017,"dx":0.0017,"nx":28,"ny":28,"refTime":"2024-08-25T03:00:00:Z","depth":0,"parameterNumber":2,"parameterNumberName":"U-component_of_WINDS"},"data":[0,0,0,0,0,0,0,0,0,0,0,0,0,0,0,0,0,0,0,0,0,0,0,0,0,0,0,0,0,0,0,0,0,0,0,0,0,0,0,0,0,0,0,0,0,0,0,0,0,0,0,0,0,0,0,0,0,0,-5.6721,-5.6721,0,-5.6699,-5.6699,-5.6699,-5.655,-5.6547,-5.6543,-5.654,-5.6518,-5.6521,-5.6524,0,0,0,0,0,0,0,0,0,0,0,0,0,-5.6637,-5.6639,-5.6721,-5.6721,-5.6721,-5.6699,-5.6699,-5.6698,-5.6551,-5.6546,-5.6542,-5.6538,-5.6517,-5.6521,-5.6524,0,0,0,0,0,0,0,0,0,0,0,0,0,-5.665,-5.664,-5.6721,-5.6644,-5.6637,-5.6699,-5.6699,-5.6698,-5.6552,-5.6546,-5.6541,-5.6536,-5.6516,-5.652,-5.6525,-5.6659,0,0,-5.6537,-5.6539,0,0,0,0,0,0,0,0,-5.665,-5.6654,-5.6656,-5.665,-5.6642,-5.6622,-5.6661,-5.6685,-5.6553,-5.6584,-5.6539,-5.6533,-5.6557,-5.6558,-5.6566,-5.6658,-5.6657,-5.6538,-5.654,-5.6542,-5.6543,0,0,0,0,0,0,0,-5.6649,-5.6654,-5.6712,-5.6656,-5.6648,-5.6611,-5.6607,-5.6665,-5.6602,-5.6581,-5.657,-5.657,-5.6552,-5.6562,-5.6564,-5.6657,-5.6538,-5.6541,-5.6544,-5.6546,-5.6858,-5.6864,0,0,0,0,0,0,-5.6659,-5.6654,-5.6713,-5.6712,-5.6633,-5.6617,-5.6613,-5.6634,-5.66,-5.659,-5.6574,-5.6563,-5.6557,-5.6559,-5.6563,-5.6717,-5.6542,-5.6546,-5.6549,-5.6853,-5.686,-5.6866,0,0,0,0,0,0,-5.6657,-5.6665,-5.6714,-5.668,-5.6683,-5.6625,-5.6649,-5.6636,-5.6645,-5.6595,-5.6583,-5.6596,-5.6553,-5.6557,-5.6636,-5.6715,-5.6548,-5.6552,-5.6846,-5.6855,-5.6863,-5.7029,0,0,0,0,0,0,-5.6656,-5.6666,-5.6716,-5.6682,-5.6686,-5.6788,-5.6654,-5.664,-5.6653,-5.6638,-5.6612,-5.6603,-5.6549,-5.6631,-5.664,-5.6718,-5.6555,-5.6839,-5.685,-5.686,-5.7016,-5.7042,-5.7065,0,0,0,0,0,-5.6653,-5.6764,-5.6719,-5.6727,-5.6747,-5.6793,-5.6795,-5.6731,-5.666,-5.671,-5.6678,-5.6603,-5.6705,-5.664,-5.665,-5.6729,-5.6833,-5.6847,-5.6859,-5.7005,-5.7037,-5.7064,0,0,0,0,0,0,-5.6809,-5.6758,-5.6708,-5.6811,-5.6808,-5.6768,-5.6829,-5.6766,-5.6783,-5.6768,-5.6688,-5.6684,-5.6775,-5.676,-5.6689,-5.6858,-5.6756,-5.6772,-5.6864,-5.6894,-5.6918,-5.6919,-5.6559,0,0,0,0,0,-5.6855,-5.6896,-5.685,-5.6945,-5.6946,-5.6888,-5.6906,-5.6857,-5.685,-5.6847,-5.6821,-5.6817,-5.6848,-5.687,-5.6896,-5.7014,-5.7006,-5.7073,-5.7098,-5.7118,-5.7132,-5.7193,-5.7222,-5.6909,-5.6909,-5.6908,0,0,-5.6952,-5.6929,-5.696,-5.6976,-5.6967,-5.7012,-5.6888,-5.694,-5.6972,-5.6855,-5.6928,-5.6909,-5.69,-5.6999,-5.7042,-5.6989,-5.7217,-5.7134,-5.7151,-5.7154,-5.721,-5.7239,-5.7266,-5.6918,-5.6916,-5.6915,0,0,-5.7149,-5.7137,-5.7214,-5.7208,-5.7196,-5.7157,-5.7177,-5.7146,-5.7129,-5.7201,-5.7114,-5.7152,-5.7207,-5.7204,-5.7209,-5.7407,-5.7339,-5.7418,-5.7544,-5.7605,-5.7629,-5.7651,-5.7721,-5.7747,-5.7432,-5.7433,-5.7433,0,-5.727,-5.7333,-5.7262,-5.732,-5.733,-5.7226,-5.7305,-5.7302,-5.73,-5.731,-5.7251,-5.7318,-5.7305,-5.7402,-5.745,-5.7458,-5.7478,-5.742,-5.7631,-5.7652,-5.7671,-5.7737,-5.7764,-5.7442,-5.7441,-5.744,-5.7439,0,-5.7483,-5.7528,-5.7592,-5.7592,-5.7609,-5.7678,-5.7618,-5.7644,-5.7594,-5.7561,-5.7636,-5.7616,-5.7636,-5.7656,-5.7607,-5.7746,-5.7714,-5.7645,-5.7542,-5.7712,-5.7773,-5.7798,-5.7456,-5.7453,-5.745,-5.7447,0,0,-5.7777,-5.7737,-5.7762,-5.7761,-5.7741,-5.7774,-5.7838,-5.7857,-5.7881,-5.7884,-5.7935,-5.7984,-5.792,-5.7927,-5.7877,-5.7931,-5.8089,-5.7855,-5.7853,-5.7899,-5.8241,-5.8292,-5.8323,-5.8044,-5.8048,-5.8052,-5.8241,0,-5.7967,-5.8072,-5.8011,-5.8126,-5.8167,-5.8069,-5.8124,-5.8119,-5.809,-5.8121,-5.809,-5.8126,-5.8038,-5.8042,-5.809,-5.8059,-5.8156,-5.8045,-5.8091,-5.8094,-5.8096,-5.8355,-5.8409,-5.8589,-5.8265,-5.8269,-5.8271,0,-5.8201,-5.8213,-5.8333,-5.8305,-5.8319,-5.837,-5.8383,-5.8414,-5.8405,-5.8381,-5.8389,-5.8327,-5.8388,-5.8286,-5.8369,-5.8295,-5.8311,-5.8298,-5.8304,-5.8305,-5.8193,-5.8363,-5.8645,-5.8672,-5.8308,-5.8305,-5.8303,0,-5.8404,-5.845,-5.8527,-5.8529,-5.8498,-5.8537,-5.8526,-5.8512,-5.8527,-5.8539,-5.8548,-5.8567,-5.8577,-5.8594,-5.8538,-5.8469,-5.8629,-5.8523,-5.8611,-5.8613,-5.8648,-5.8647,-5.8936,-5.866,-5.8659,-5.8659,-5.8658,0,-5.8621,-5.8698,-5.8617,-5.8665,-5.8748,-5.8677,-5.8762,-5.874,-5.8729,-5.8771,-5.8688,-5.873,-5.8654,-5.8688,-5.8645,-5.8721,-5.8726,-5.8708,-5.8696,-5.8716,-5.8718,-5.8724,-5.871,-5.8666,-5.8664,-5.8663,-5.8662,0,-5.8861,-5.881,-5.8888,-5.8853,-5.8846,-5.8909,-5.8878,-5.8921,-5.8887,-5.8942,-5.895,-5.8898,-5.8933,-5.888,-5.891,-5.8881,-5.8985,-5.8954,-5.8988,-5.8979,-5.907,-5.9062,-5.9373,-5.941,-5.9111,-5.9114,-5.9116,0,-5.9003,-5.9059,-5.903,-5.9052,-5.9046,-5.9083,-5.9098,-5.9031,-5.905,-5.9045,-5.9089,-5.9118,-5.9137,-5.9199,-5.9164,-5.9186,-5.9155,-5.9262,-5.9158,-5.9176,-5.9156,-5.9153,-5.9158,-5.9284,-5.9287,-5.929,-5.9293,0,-5.926,-5.9232,-5.9257,-5.9274,-5.9294,-5.9304,-5.9308,-5.9331,-5.9261,-5.9287,-5.9322,-5.9337,-5.9368,-5.9398,-5.9412,-5.94,-5.9336,-5.9326,-5.9347,-5.9368,-5.9385,-5.9376,-5.9046,-5.9319,-5.9316,-5.9314,-5.9313,-5.9312,-5.9454,-5.95,-5.9487,-5.9517,-5.9513,-5.9519,-5.9558,-5.9529,-5.9557,-5.9576,-5.9535,-5.9581,-5.9571,-5.9583,-5.958,-5.9615,-5.9568,-5.9599,-5.9607,-5.9615,-5.9629,-5.938,-5.9617,-5.9616,-5.9615,-5.9615,-5.9614,0,-5.9706,-5.9693,-5.9722,-5.973,-5.9755,-5.9691,-5.9693,-5.9717,-5.9758,-5.9755,-5.9776,-5.9817,-5.9845,-5.9813,-5.9836,-5.987,-5.9841,-5.9878,-5.9875,-5.9873,-5.967,-5.9649,-5.9902,-5.9902,-5.9902,-5.9901,-5.9901,-5.9901,-5.984,-5.9914,-5.9885,-5.9957,-5.9943,-5.9986,-5.9993,-5.9998,-5.9995,-6.0044,-6.0067,-6.0046,-6.0031,-6.0052,-6.0076,-6.0065,-6.0078,-6.0126,-6.0105,-5.9916,-5.9888,-5.9861,-5.984,-6.0129,-6.0129,-6.0305,-6.0307,-6.0308]},{"header":{"parameterUnit":"m.s-1","parameterCategory":1,"la1":30.2991,"la2":30.254,"lo1":-89.0895,"lo2":-89.0444,"dy":0.0017,"dx":0.0017,"nx":28,"ny":28,"refTime":"2024-08-25T03:00:00:Z","depth":0,"parameterNumber":3,"parameterNumberName":"V-component_of_WINDS"},"data":[0,0,0,0,0,0,0,0,0,0,0,0,0,0,0,0,0,0,0,0,0,0,0,0,0,0,0,0,0,0,0,0,0,0,0,0,0,0,0,0,0,0,0,0,0,0,0,0,0,0,0,0,0,0,0,0,0,0,0.3064,0.3065,0,0.3124,0.3125,0.3126,0.3199,0.3201,0.3202,0.3203,0.3261,0.3261,0.3262,0,0,0,0,0,0,0,0,0,0,0,0,0,0.3011,0.3011,0.3064,0.3065,0.3066,0.3124,0.3125,0.3126,0.3199,0.3201,0.3202,0.3203,0.3261,0.3261,0.3262,0,0,0,0,0,0,0,0,0,0,0,0,0,0.3049,0.3012,0.3064,0.3109,0.3114,0.3124,0.3125,0.3126,0.3199,0.3201,0.3202,0.3204,0.3261,0.3261,0.3262,0.3231,0,0,0.3264,0.3264,0,0,0,0,0,0,0,0,0.3046,0.305,0.3102,0.3106,0.3112,0.3156,0.3128,0.3161,0.3198,0.3167,0.3203,0.3205,0.3224,0.3228,0.3236,0.3234,0.3236,0.3264,0.3264,0.3265,0.3265,0,0,0,0,0,0,0,0.3044,0.3048,0.3088,0.3103,0.3108,0.3126,0.3133,0.3134,0.3185,0.3169,0.3175,0.3181,0.3227,0.3235,0.3237,0.3237,0.3264,0.3265,0.3265,0.3265,0.3215,0.3214,0,0,0,0,0,0,0.3035,0.3046,0.3086,0.309,0.3083,0.3126,0.3134,0.314,0.3185,0.3194,0.318,0.3185,0.3233,0.3237,0.324,0.3208,0.3265,0.3265,0.3266,0.3217,0.3215,0.3213,0,0,0,0,0,0,0.3033,0.3037,0.3084,0.3069,0.3077,0.3125,0.3131,0.314,0.3148,0.3193,0.3202,0.3178,0.3234,0.3239,0.3234,0.3211,0.3266,0.3266,0.3219,0.3216,0.3214,0.3143,0,0,0,0,0,0,0.3031,0.3037,0.3026,0.3069,0.3077,0.3077,0.313,0.314,0.3149,0.3156,0.3194,0.3202,0.3236,0.3232,0.3234,0.3213,0.3267,0.3221,0.3218,0.3215,0.3148,0.3138,0.313,0,0,0,0,0,0.3029,0.3002,0.3025,0.3029,0.3065,0.3075,0.308,0.3121,0.3147,0.3136,0.3166,0.32,0.3213,0.3231,0.3234,0.3212,0.3223,0.3219,0.3215,0.3151,0.314,0.3131,0,0,0,0,0,0,0.2953,0.3008,0.3034,0.302,0.3043,0.3088,0.3075,0.3107,0.3122,0.3127,0.3177,0.3185,0.3173,0.3193,0.3211,0.3186,0.3223,0.322,0.3174,0.3163,0.3155,0.315,0.3267,0,0,0,0,0,0.2935,0.294,0.2988,0.2971,0.2981,0.3026,0.3032,0.3062,0.3087,0.3096,0.3125,0.3147,0.3156,0.3161,0.3172,0.3151,0.3161,0.3138,0.3129,0.3122,0.3118,0.311,0.31,0.32,0.32,0.32,0,0,0.2897,0.2928,0.2928,0.2956,0.2977,0.2981,0.3033,0.3034,0.3038,0.3096,0.3093,0.3115,0.3143,0.313,0.3126,0.3146,0.3093,0.3117,0.3111,0.3111,0.3105,0.3095,0.3087,0.3198,0.3198,0.3199,0,0,0.283,0.2854,0.2843,0.2864,0.2896,0.2926,0.2924,0.2964,0.2982,0.298,0.3025,0.3029,0.3043,0.3062,0.3073,0.3015,0.3048,0.3017,0.2972,0.2963,0.2955,0.2949,0.2928,0.2921,0.3014,0.3013,0.3013,0,0.2779,0.2787,0.2833,0.2833,0.2844,0.2899,0.2889,0.2906,0.2939,0.2945,0.2968,0.2989,0.3011,0.3004,0.299,0.2997,0.2996,0.3013,0.2953,0.2947,0.2941,0.2922,0.2915,0.3009,0.301,0.301,0.3011,0,0.2723,0.2727,0.2715,0.2747,0.2758,0.2752,0.2797,0.2802,0.2831,0.2859,0.2858,0.2887,0.2905,0.2906,0.2934,0.2903,0.2915,0.2944,0.2982,0.2927,0.291,0.2903,0.3004,0.3005,0.3006,0.3007,0,0,0.2608,0.2668,0.2662,0.2679,0.2719,0.2723,0.272,0.274,0.2743,0.2764,0.2763,0.2775,0.2804,0.2816,0.2847,0.2839,0.2793,0.287,0.2872,0.2855,0.2761,0.2739,0.273,0.2815,0.2814,0.2813,0.2759,0,0.2548,0.2547,0.259,0.2577,0.2583,0.2636,0.2634,0.2658,0.2685,0.2693,0.2722,0.273,0.2766,0.2775,0.277,0.2799,0.2775,0.2804,0.2814,0.2814,0.2805,0.2721,0.2697,0.2644,0.2753,0.2752,0.2751,0,0.2478,0.2497,0.2485,0.2528,0.2532,0.2529,0.2551,0.2559,0.2587,0.2607,0.2623,0.2659,0.2658,0.2695,0.2696,0.2715,0.2722,0.2737,0.2736,0.2738,0.2778,0.272,0.2628,0.262,0.2741,0.2742,0.2743,0,0.2396,0.2419,0.2415,0.2427,0.2477,0.2474,0.2494,0.2524,0.2534,0.2553,0.256,0.2578,0.2588,0.2602,0.2642,0.2665,0.2638,0.2678,0.2654,0.2653,0.2645,0.2645,0.2552,0.265,0.265,0.265,0.265,0,0.2325,0.2315,0.238,0.2377,0.2368,0.2418,0.2408,0.2433,0.246,0.2464,0.2511,0.2513,0.2566,0.2573,0.2605,0.2601,0.2605,0.2621,0.2629,0.2616,0.2614,0.2621,0.2625,0.2648,0.2648,0.2649,0.2649,0,0.2231,0.2274,0.2273,0.2321,0.2333,0.2324,0.2365,0.2364,0.2395,0.2399,0.2402,0.2449,0.2461,0.2503,0.2524,0.2546,0.2532,0.2548,0.2522,0.2528,0.2502,0.2503,0.241,0.24,0.2503,0.2502,0.2501,0,0.2183,0.2177,0.2225,0.2231,0.225,0.2259,0.227,0.2319,0.2328,0.2361,0.2357,0.2373,0.2388,0.2405,0.244,0.2457,0.2474,0.2441,0.2477,0.2465,0.2474,0.2474,0.2474,0.2432,0.2431,0.243,0.2429,0,0.2092,0.2115,0.2129,0.2151,0.2163,0.2182,0.2204,0.2206,0.2261,0.2268,0.2282,0.2294,0.2318,0.2333,0.2356,0.2376,0.2411,0.2417,0.2413,0.2399,0.2385,0.2393,0.2501,0.2419,0.242,0.2421,0.2421,0.2422,0.202,0.2019,0.2052,0.2067,0.2089,0.2109,0.2112,0.2143,0.2156,0.218,0.2208,0.2218,0.2248,0.2283,0.2301,0.231,0.2329,0.2322,0.232,0.2318,0.2312,0.2384,0.2314,0.2314,0.2315,0.2315,0.2315,0,0.1933,0.1958,0.1971,0.2001,0.2013,0.2047,0.2074,0.2081,0.209,0.2116,0.2131,0.2147,0.2162,0.22,0.2219,0.2219,0.2235,0.2222,0.2222,0.2227,0.2293,0.2296,0.2208,0.2208,0.2208,0.2208,0.2208,0.2209,0.1889,0.1888,0.1914,0.1925,0.195,0.1961,0.1974,0.1992,0.2013,0.203,0.2044,0.2069,0.21,0.2122,0.2138,0.2148,0.2153,0.2134,0.215,0.2212,0.2222,0.2231,0.2234,0.2135,0.2135,0.2083,0.2082,0.2082]}]]